Tracking 19846 objects as of 18-Sep-2019
HD Live streaming from Space Station
objects crossing your sky now

NEPALISAT1

Track NEPALISAT1 now!
10-day predictions
NEPALISAT1 is classified as:


NORAD ID: 44329
Int'l Code: 1998-067QE
Perigee: 409.9 km
Apogee: 420.7 km
Inclination: 51.6 °
Period: 92.7 minutes
Semi major axis: 6786 km
RCS: Unknown
Launch date: November 20, 1998
Source: Federal Democratic Republic of Nepal (NPL)
Launch site: TYURATAM MISSILE AND SPACE COMPLEX (TTMTR)

Uplink (MHz):
Downlink (MHz): 437.375
Beacon (MHz): 437.375
Mode: 4800bps GMSK CW
Call sign: JG6YLG
Status: Active

aabbcc
Your satellite tracking list
Your tracking list is empty




NASA's NSSDC Master Catalog

Two Line Element Set (TLE):
1 44329U 98067QE  19260.28748873 +.00007182 +00000-0 +12060-3 0  9997
2 44329 051.6398 263.3772 0007985 060.6076 299.5711 15.52932422014330
Source of the keplerian elements: AFSPC